Home   Weather   Ulm   Past weeks

Flag for Germany Past Weather in Ulm, Baden-Württemberg, Germany — Yesterday and Last 2 Weeks

Now
27 °F

Ice fog.


Feels Like: 27 °F
Forecast: 21 / 41 °F
Wind: 1 mph from Northwest

Location: Laupheim Airport

Current Time: Dec 7, 2016 at 7:33:14 pm

Latest Report: Dec 7, 2016 at 6:20 pm


Visibility: 0 mi

Pressure: 30.54 "Hg

Humidity: 93%

Dew Point: 25 °F

Location of UlmLocation

Past Weather in Ulm — Graph

°F

Ulm Temperature Yesterday

Maximum temperature yesterday: 43 °F (at 2:20 pm)
Minimum temperature yesterday: 23 °F (at 5:20 am)
Average temperature yesterday: 29 °F

High & Low Weather Summary for the Past Weeks

 TemperatureHumidityPressure
High46 °F (Nov 22, 6:20 pm)100% (Nov 22, 10:20 pm)30.54 "Hg (Nov 22, 10:20 pm)
Low19 °F (Nov 30, 1:20 am)51% (Nov 29, 2:20 pm)29.92 "Hg (Nov 22, 6:20 pm)
Average34 °F89%30.21 "Hg
* Reported Nov 22 6:20 pm — Dec 7 6:20 pm, Ulm, Weather by CustomWeather, © 2016

Note: Actual official high and low records may vary slightly from our data, if they occured in-between our weather recording intervals... More about our weather records

Advertising

Ulm Weather History for the Previous 24 Hours

Scroll right to see more
 ConditionsComfort  
Time TempWeatherWind HumidityBarometerVisibility
6:20 pm
Wed, Dec 7
27 °FIce fog.1 mph93%30.54 "Hg0 mi
5:20 pm27 °FIce fog.1 mph100%30.54 "Hg1 mi
4:20 pm27 °FIce fog.1 mph100%30.51 "Hg0 mi
3:20 pm27 °FIce fog.1 mph100%30.51 "Hg0 mi
2:20 pm27 °FIce fog.2 mph93%30.51 "Hg0 mi
1:47 pm27 °FIce fog.2 mph93%30.51 "Hg0 mi
1:20 pm27 °FIce fog.1 mph93%30.51 "Hg0 mi
12:49 pm27 °FIce fog.2 mph93%30.51 "Hg0 mi
12:20 pm25 °FIce fog.1 mph100%30.51 "Hg0 mi
11:20 am25 °FIce fog.1 mph93%30.51 "Hg0 mi
10:20 am25 °FIce fog.1 mph93%30.54 "Hg0 mi
9:20 am23 °FIce fog.1 mph100%30.54 "Hg0 mi
8:20 am23 °FIce fog.1 mph100%30.51 "Hg0 mi
7:20 am23 °FIce fog.1 mph93%30.51 "Hg0 mi
6:20 am23 °FIce fog.2 mph93%30.51 "Hg0 mi
5:20 am23 °FIce fog.2 mph93%30.51 "Hg0 mi
4:20 am23 °FIce fog.3 mph100%30.51 "Hg0 mi
3:20 am23 °FIce fog.2 mph100%30.51 "Hg0 mi
2:20 am25 °FIce fog.5 mph93%30.51 "Hg0 mi
1:20 am25 °FIce fog.1 mph93%30.48 "Hg0 mi
12:20 am23 °FIce fog.2 mph100%30.48 "Hg0 mi
11:20 pm
Tue, Dec 6
25 °FIce fog.1 mph93%30.48 "Hg1 mi
10:20 pm27 °FIce fog.1 mph100%30.48 "Hg1 mi
9:20 pm27 °FIce fog.1 mph100%30.48 "Hg1 mi
8:55 pm28 °FIce fog.1 mph93%30.48 "Hg1 mi
8:20 pm28 °FIce fog.1 mph93%30.48 "Hg2 mi
Weather by CustomWeather, © 2016

See weather overviewHow to use our weather pages